Regional Weather Roundup
Issued by NWS

Home | Current Version | Previous Version | Text Only | Print | Product List | Glossary On
Versions: 1 2 3 4 5 6 7 8 9 10 11 12 13 14 15 16 17 18 19 20 21 22 23 24 25 26 27 28 29 30 31 32 33 34 35 36 37 38 39 40 41 42 43 44 45 46 47 48 49 50
000
ASUS44 KLUB 190901
RWRTX
WEST TEXAS WEATHER ROUNDUP
NATIONAL WEATHER SERVICE LUBBOCK TX
400 AM CDT SUN APR 19 2015

NOTE: "FAIR" INDICATES FEW OR NO CLOUDS BELOW 12,000 FEET WITH NO
SIGNIFICANT WEATHER AND/OR OBSTRUCTIONS TO VISIBILITY.

TXZ004-006>008-010-012-014-016-OKZ002-191000-
TEXAS PANHANDLE/OKLAHOMA PANHANDLE

CITY           SKY/WX    TMP DP  RH WIND       PRES   REMARKS
AMARILLO       PTCLDY    46  36  68 NW10      29.85S
BORGER         CLOUDY    51  39  63 N7        29.85R
DALHART        CLEAR     42  33  70 NW8       29.89R
DUMAS          PTCLDY    38  32  79 NW8       29.87S WCI  32
GUYMON         MOCLDY    39  34  82 SW7       29.85S WCI  34
$$

TXZ026-029-035-045-048-191000-
SOUTHERN PANHANDLE/SOUTH PLAINS/ROLLING PLAINS

CITY           SKY/WX    TMP DP  RH WIND       PRES   REMARKS
CHILDRESS      CLOUDY    55  53  93 NW13      29.73S
SEMINOLE       CLEAR     49  36  60 NW7       29.85R
LUBBOCK        CLEAR     50  32  50 NW15      29.79R
$$

TXZ052-054-060>062-072-078-127-140-154-169-191000-
PERMIAN BASIN/CONCHO VALLEY/BIG COUNTRY/EDWARDS PLATEAU

CITY           SKY/WX    TMP DP  RH WIND       PRES   REMARKS
ABILENE        CLEAR     56  52  86 SE8       29.73F
BRADY          CLEAR     63  63 100 SW8       29.78S
JUNCTION       PTCLDY    60  58  92 CALM      29.81F
MIDLAND        CLEAR     56  30  37 NW9       29.82R
ODESSA         CLEAR     55  29  36 NW9       29.84R
SAN ANGELO     CLEAR     52  50  93 SW7       29.78F
WINK           CLEAR     53  26  35 NW6       29.83R
$$

TXZ055-058-074-075-080-082-191000-
FAR WEST/SOUTHWEST MOUNTAINS/TRANS PECOS

CITY           SKY/WX    TMP DP  RH WIND       PRES   REMARKS
DRYDEN           N/A     57  34  41 S7        29.82S
EL PASO        CLEAR     66  16  14 W22G29    29.93F
FORT STOCKTON  CLEAR     58  25  28 SW13      29.84F
MARFA          CLEAR     41  27  56 W7        29.99S
$$

TXZ014-016-019-021>030-083-191000
TEXAS TECH WEST TEXAS MESONET/TEXAS PANHANDLE/NORTHERN SOUTH PLAINS

CITY           SKY/WX    TMP DP  RH WIND       PRES   REMARKS
ABERNATHY 5ENE   N/A     46  33  61 NW10      29.80R
AMARILLO 9NNE    N/A     41  34  74 N3        29.86S
AMARILLO 7SSE    N/A     45  36  69 NW10      29.86R
AMHERST 1NE      N/A     47  33  59 NW15      29.84R
BOOTLEG 11WNW    N/A     38  29  69 NW10      29.91S WCI  32
CANADIAN 6E      N/A     54  41  62 NW12      29.78S
CAPROCK CYN SP   N/A     56  41  56 NW8       29.77S
CLARENDON 2WSW   N/A     50  41  73 N2        29.78S
DIMMITT 2NE      N/A     39  32  76 NW12      29.86R WCI  32
FLOYDADA 2NNE    N/A     44  34  68 W8        29.76F
FRIONA 2NE       N/A     38  29  69 NW7       29.89R WCI  32
GOODLETT 3W      N/A     56  52  87 E6        29.70F
HART 3N          N/A     43  34  72 NW16      29.83R
HEREFORD 2NW     N/A     42  31  65 N9        29.86S
MCLEAN 1E        N/A     49  44  81 N10       29.78R
MEMPHIS 1NE      N/A     55  47  75 N6        29.74F
MULESHOE 2SSW    N/A     41  31  66 NW7       29.87R
OLTON 6S         N/A     44  34  67 NW12      29.81S
PALO DURO SP     N/A     51  37  59 N12       29.85R
PAMPA 2E         N/A     51  40  65 NW10      29.82S
PLAINVIEW 1S     N/A     45  36  72 N9        29.79R
SILVERTON 7ESE   N/A     48  40  73 NW10      29.78F
TULIA 2ENE       N/A     42  39  88 NW9       29.81R
UMBARGER 3NNE    N/A     41  32  70 N10       29.87R
$$

TXZ033>036-039>041-045>048-191000
TEXAS TECH WEST TEXAS MESONET/SOUTH PLAINS

CITY           SKY/WX    TMP DP  RH WIND       PRES   REMARKS
AIKEN 3WSW       N/A     43  34  70 NW7       29.79S
ANDREWS 2NE      N/A     54  31  41 W7        29.84S
ANTON 6SSW       N/A     50  32  50 NW17      29.82R
BROWNFIELD 2S    N/A     52  32  46 W14       29.82R
DENVR CTY 7WNW   N/A     50  32  50 W15       29.85R
GAIL 2ESE        N/A     59  31  33 NW13      29.77S
LAMESA 2SE       N/A     51  38  61 W5        29.81F
LEVELLAND 4S     N/A     51  31  47 W13       29.82R
LUBBOCK 3WNW     N/A     53  31  43 W10       29.80S
MORTON 1ENE      N/A     47  32  56 NW12      29.85R
ODONNELL 1N      N/A     50  35  56 W7        29.80S
PLAINS 3N        N/A     45  35  67 W9        29.84S
RALLS 1SE        N/A     49  32  51 W7        29.78F
REESE CENTER     N/A     52  31  44 NW16      29.80R
SEMINOLE 2NNE    N/A     53  33  46 NW8       29.83S
SLATON 2NE       N/A     54  33  45 W10       29.78S
SNYDER 3E        N/A     53  35  49 SW6       29.77R
SUNDOWN 8SW      N/A     49  32  51 W12       29.83S
TAHOKA 3NNE      N/A     51  33  50 W10       29.79S
WOLFFORTH 6SSW   N/A     54  32  43 W14       29.80S
$$

TXZ031-032-036>038-042>044-191000-
TEXAS TECH WEST TEXAS MESONET/ROLLING PLAINS

CITY           SKY/WX    TMP DP  RH WIND       PRES   REMARKS
ASPERMONT 3NE    N/A     55  45  69 S8        29.71F
FLUVANNA 3WNW    N/A     55  33  42 NW12      29.77S
GRAHAM 5SSW      N/A     53  33  46 W12       29.78S
GUTHRIE 10WSW    N/A     53  41  64 SW2       29.71F
HASKELL 1NW      N/A     53  51  94 S8        29.70F
KNOX CITY 3NW    N/A     54  49  84 SW7       29.71S
LK A HENRY 1NW   N/A     49  39  70 SW7       29.75F
NORTHFIELD 1S    N/A     57  51  81 NW10      29.73R
ODELL 4ENE       N/A     55  52  88 E13       29.71F
PADUCAH 10SW     N/A     58  44  60 W8        29.70F
POST 1NE         N/A     58  32  36 W12       29.76F
RRING SPRGS 3N   N/A     50  43  77 W10       29.73F
SEYMOUR 3NW      N/A     55  51  86 SE7       29.70S
SPUR 1W          N/A     50  41  71 NW3       29.73S
WEINERT 2NNE     N/A     51  49  93 S7        29.70F
WHITE RVR 6NE    N/A     55  31  41 NE5       29.75F
$$

TXZ052-054-060>062-072-078-127-140-154-169-191000-
TEXAS TECH WEST TEXAS MESONET/PERMIAN BASIN/
CONCHO VALLEY/BIG COUNTRY/EDWARDS PLATEAU

CITY           SKY/WX    TMP DP  RH WIND       PRES   REMARKS
COYANOSA 2N      N/A     60  27  28 SW9       29.82F
JUNCTION 1SSW    N/A     59  58  97 S1        29.82F
MERTZON 3NNE     N/A     51  43  73 S3        29.81F
SAN ANGELO 7NW   N/A     49  44  83 SW3       29.78F
STRLNG CT 4WSW   N/A     54  29  38 SW2       29.79F
ST LAWRNCE 5SW   N/A     50  33  52 SW8       29.81S
SWEETWATR 11SW   N/A     51  49  93 S5        29.78S
WALL 1E          N/A     60  55  84 S16       29.77F
$$

TXZ055-058-074-075-080-082-191000-
TEXAS TECH WEST TEXAS MESONET/FAR WEST/SOUTHWEST MOUNTAINS/TRANS PECOS

CITY           SKY/WX    TMP DP  RH WIND       PRES   REMARKS
PRSMN GAP BBNP   N/A     59  25  27 S6        29.89S
$$



USA.gov is the U.S. government's official web portal to all federal, state and local government web resources and services.